Погода в Ванееве

Россия / Вологодская область     59°06′35″N   38°04′49″E
темп.,
°C
ветер,
м/с
пор.,
м/с
влажн.,
%
обл.,
%
осадки,
мм/ч
давл.,
гПа
погр.,
м
13 июня, вс
вс1300:00+16юв4977100 0.0 1006299
03:00+14юв379095 0.0 1005187
06:00+14ююв3592100 0.0 1005191
09:00+16ю358090 0.0 1006383
12:00+18ююв456824 0.0 1006690
15:00+20юв446440 0.0 1005748
18:00+19ююв466746 0.0 1006267
21:00+17ю247789 0.0 100780
14 июня, пн
пн1400:00+17ююз237792 0.0 100774
03:00+16ююз238099 0.0 100861
06:00+17ююз2379100 0.0 101074
09:00+18юз2472100 0.0 1011156
12:00+21ююз24606 0.0 1012522
15:00+17вюв118897 1.9 101326
18:00+18юз129215 2.6 101392
21:00+17с369398 3.3 1014130
15 июня, вт
вт1500:00+15ссв22927 0.0 101433
03:00+13ссв119212 0.0 101411
06:00+15в008810 0.0 101460
09:00+17ю23745 0.0 1013397
12:00+19ююв347094 0.0 1011732
15:00+18ю4676100 0.1 1010206
18:00+20ююз35680 0.0 1009340
21:00+19юз3768100 0.0 1008154
16 июня, ср
ср1600:00+17з3869100 0.0 1009195
03:00+14ссз3777100 0.0 1010184
06:00+14зсз2484100 0.4 1011214
09:00+17зсз46595 0.5 1011948
12:00+20сз683829 0.1 10121867
15:00+20сз58335 0.1 10131915
18:00+20сз68373 0.0 10141568
21:00+16сз511482 0.0 1017456
17 июня, чт
чт1700:00+14сз410575 0.0 1019324
03:00+11сз37640 0.0 1021200
06:00+12сз47600 0.0 1022255
09:00+17сз46460 0.0 1023680
12:00+20сз46370 0.0 10241228
15:00+21ссз36363 0.0 10241412
18:00+22ссз35411 0.0 10241395
21:00+18ююз11570 0.0 102412